GW3885 Weather Reports


time (UTC)temp
C
wind
direction
speed
KPH
gust
KPH
rain 1hr
cm
rain 24hr
cm
rain mn
cm
humidity
%
barometer
mb
20260506114555 23 104 1.6 9.7 0.00 0.00 0.00 96 1007.9
20260506114054 23 123 1.6 9.7 0.00 0.00 0.00 96 1007.8
20260506113557 23 119 1.6 6.4 0.00 0.00 0.00 96 1007.7
20260506113100 23 123 1.6 6.4 0.00 0.00 0.00 96 1007.7
20260506112555 23 0 3.2 6.4 0.00 0.00 0.00 96 1007.7
20260506112054 23 124 3.2 11.3 0.00 0.00 0.00 96 1007.6
20260506111601 23 117 3.2 11.3 0.00 0.00 0.00 96 1007.5
20260506111058 23 109 4.8 11.3 0.00 0.00 0.00 96 1007.5
20260506110555 23 117 3.2 9.7 0.00 0.00 0.00 96 1007.6
20260506105555 23 0 1.6 8.0 0.00 0.00 0.00 96 1007.5
20260506105058 23 128 3.2 9.7 0.00 0.00 0.00 96 1007.5
20260506104601 23 108 3.2 9.7 0.00 0.00 0.00 96 1007.5
20260506104054 23 126 3.2 9.7 0.00 0.00 0.00 96 1007.5
20260506103555 23 129 3.2 9.7 0.00 0.00 0.00 95 1007.6
20260506103055 23 134 3.2 11.3 0.00 0.00 0.00 95 1007.5
20260506102555 23 115 3.2 11.3 0.00 0.00 0.00 96 1007.6
20260506102055 23 126 3.2 8.0 0.00 0.00 0.00 95 1007.6
20260506101556 23 134 3.2 8.0 0.00 0.00 0.00 96 1007.6
20260506101056 23 135 1.6 9.7 0.00 0.00 0.00 95 1007.5
20260506100554 23 128 4.8 11.3 0.00 0.00 0.00 95 1007.5
20260506095556 23 128 3.2 9.7 0.00 0.00 0.00 95 1007.4
20260506095055 23 132 3.2 6.4 0.00 0.00 0.00 95 1007.5
20260506094611 23 116 3.2 11.3 0.00 0.00 0.00 95 1007.5
20260506094100 23 119 3.2 11.3 0.00 0.00 0.00 95 1007.4
20260506093557 23 119 3.2 8.0 0.00 0.00 0.00 95 1007.4
20260506093055 23 126 3.2 8.0 0.00 0.00 0.00 95 1007.5
20260506092555 23 115 3.2 8.0 0.00 0.00 0.00 95 1007.4
20260506092055 23 114 3.2 11.3 0.00 0.00 0.00 95 1007.4
20260506091555 23 129 3.2 11.3 0.00 0.00 0.00 95 1007.4
20260506091056 23 121 3.2 11.3 0.00 0.00 0.00 95 1007.5
20260506090554 23 142 3.2 11.3 0.00 0.00 0.00 94 1007.5
20260506090055 23 135 3.2 9.7 0.00 0.00 0.00 94 1007.4
20260506085555 23 147 4.8 9.7 0.00 0.00 0.00 94 1007.3
20260506085057 23 128 1.6 8.0 0.00 0.00 0.00 94 1007.3
20260506084557 23 128 3.2 11.3 0.00 0.00 0.00 94 1007.4
20260506084055 23 134 1.6 11.3 0.00 0.00 0.00 94 1007.4
20260506083556 23 127 3.2 11.3 0.00 0.00 0.00 94 1007.4
20260506083102 23 132 4.8 12.9 0.00 0.00 0.00 94 1007.4
20260506082555 23 150 4.8 12.9 0.00 0.00 0.00 94 1007.4
20260506082055 24 128 6.4 12.9 0.00 0.00 0.00 94 1007.4
20260506081556 24 152 4.8 14.5 0.00 0.00 0.00 93 1007.4
20260506081057 24 134 4.8 14.5 0.00 0.00 0.00 93 1007.4
20260506080555 24 128 6.4 14.5 0.00 0.00 0.00 93 1007.5
20260506080107 24 121 4.8 14.5 0.00 0.00 0.00 93 1007.5
20260506073118 24 153 6.4 14.5 0.00 0.00 0.00 92 1007.7
20260506072556 24 170 6.4 14.5 0.00 0.00 0.00 92 1007.8
20260506072055 24 142 8.0 14.5 0.00 0.00 0.00 92 1007.8
20260506071602 24 137 6.4 17.7 0.00 0.00 0.00 92 1007.9
20260506071058 24 136 8.0 19.3 0.00 0.00 0.00 92 1008.0
20260506070554 24 159 8.0 22.5 0.00 0.00 0.00 92 1008.1
20260506062055 24 142 4.8 12.9 0.00 0.00 0.00 92 1008.7
20260506061601 24 148 4.8 12.9 0.00 0.00 0.00 92 1008.7
20260506061055 24 148 4.8 12.9 0.00 0.00 0.00 92 1008.7
20260506060556 24 123 4.8 16.1 0.00 0.00 0.00 92 1008.8
20260506051052 25 168 11.3 24.1 0.00 0.00 0.00 91 1008.4
20260506050552 25 162 11.3 22.5 0.00 0.00 0.00 91 1008.3
20260506045054 25 140 11.3 25.7 0.00 0.00 0.00 91 1008.2
20260506044601 25 192 11.3 22.5 0.00 0.00 0.00 91 1008.1
20260506044051 25 154 11.3 19.3 0.00 0.00 0.00 91 1008.1
20260506043553 25 121 8.0 27.4 0.00 0.00 0.00 91 1008.1
20260506043101 25 157 11.3 27.4 0.00 0.00 0.00 91 1008.0
20260506042553 25 144 14.5 27.4 0.00 0.00 0.00 91 1007.9
20260506042053 25 126 9.7 27.4 0.00 0.00 0.00 91 1007.8
20260506041557 25 163 11.3 27.4 0.00 0.00 0.00 91 1007.9
20260506041052 24 115 11.3 22.5 0.00 0.00 0.00 91 1007.8
20260506040552 24 144 8.0 22.5 0.00 0.00 0.00 91 1007.9
20260506040058 24 161 8.0 22.5 0.00 0.00 0.00 91 1007.8
20260506035552 24 167 11.3 22.5 0.00 0.00 0.00 91 1007.8
20260506035052 25 153 9.7 22.5 0.00 0.00 0.00 91 1007.8
20260506034604 25 140 9.7 22.5 0.00 0.00 0.00 90 1007.7
20260506034051 25 133 11.3 27.4 0.00 0.00 0.00 90 1007.7
20260506033554 25 136 12.9 27.4 0.00 0.00 0.00 90 1007.7
20260506033109 25 130 9.7 25.7 0.00 0.00 0.00 90 1007.7
20260506032556 25 170 12.9 25.7 0.00 0.00 0.00 90 1007.6
20260506032056 25 140 11.3 25.7 0.00 0.00 0.00 90 1007.7
20260506031555 25 144 9.7 25.7 0.00 0.00 0.00 90 1007.6
20260506031052 25 144 9.7 24.1 0.00 0.00 0.00 90 1007.7
20260506030555 25 153 9.7 25.7 0.00 0.00 0.00 90 1007.7
20260506025553 24 135 12.9 24.1 0.00 0.00 0.00 90 1007.5
20260506025055 24 122 8.0 25.7 0.00 0.00 0.00 90 1007.4
20260506024614 25 167 12.9 25.7 0.00 0.00 0.00 90 1007.4
20260506024052 25 150 9.7 22.5 0.00 0.00 0.00 90 1007.2
20260506023552 25 128 12.9 27.4 0.00 0.00 0.00 90 1007.1
20260506023104 25 156 11.3 27.4 0.00 0.00 0.00 90 1006.9
20260506022552 25 105 12.9 27.4 0.00 0.00 0.00 90 1006.9
20260506022053 25 161 14.5 25.7 0.00 0.00 0.00 90 1006.9
20260506021559 25 142 9.7 24.1 0.00 0.00 0.00 90 1006.9
20260506021055 25 135 9.7 24.1 0.00 0.00 0.00 89 1006.9
20260506020551 25 170 9.7 22.5 0.00 0.00 0.00 89 1006.8
20260506020100 25 139 12.9 24.1 0.00 0.00 0.00 89 1006.8
20260506015554 25 115 9.7 24.1 0.00 0.00 0.00 89 1006.7
20260506015052 25 123 9.7 27.4 0.00 0.00 0.00 89 1006.7
20260506014559 25 137 11.3 27.4 0.00 0.00 0.00 89 1006.5
20260506014100 25 138 14.5 25.7 0.00 0.00 0.00 88 1006.5
20260506013554 25 211 11.3 29.0 0.00 0.00 0.00 88 1006.4
20260506013106 25 152 14.5 29.0 0.00 0.00 0.00 88 1006.3
20260506012552 25 158 11.3 30.6 0.00 0.00 0.00 88 1006.4
20260506012054 25 159 16.1 30.6 0.00 0.00 0.00 88 1006.3
20260506011623 25 165 14.5 27.4 0.00 0.00 0.00 88 1006.2
20260506011053 25 143 9.7 27.4 0.00 0.00 0.00 88 1006.0
20260506010553 25 148 14.5 25.7 0.00 0.00 0.00 87 1006.0
20260506010115 25 136 12.9 25.7 0.00 0.00 0.00 87 1006.0
20260506005551 25 147 12.9 32.2 0.00 0.00 0.00 87 1005.9
20260506005057 25 161 16.1 33.8 0.00 0.00 0.00 87 1006.0
20260506004556 25 164 14.5 33.8 0.00 0.00 0.00 87 1006.0
20260506004052 25 134 9.7 25.7 0.00 0.00 0.00 87 1005.8
20260506003552 25 128 12.9 25.7 0.00 0.00 0.00 86 1005.7
20260506003058 25 163 14.5 24.1 0.00 0.00 0.00 86 1005.8
20260506002554 26 164 11.3 27.4 0.00 0.00 0.00 85 1005.7
20260506002051 26 165 11.3 29.0 0.00 0.00 0.00 85 1005.7
20260506001601 26 160 11.3 33.8 0.00 0.00 0.00 85 1005.6
20260506001052 26 111 16.1 33.8 0.00 0.00 0.00 85 1005.6
20260506000558 26 157 14.5 35.4 0.00 0.00 0.00 85 1005.6
20260506000100 26 137 12.9 38.6 0.00 0.00 0.00 85 1005.5
20260505235556 26 182 17.7 38.6 0.00 0.00 0.00 85 1005.4
20260505235055 26 182 16.1 33.8 0.00 0.00 0.00 85 1005.5
20260505234556 26 143 19.3 35.4 0.00 0.00 0.00 85 1005.5
20260505234055 26 130 17.7 35.4 0.00 0.00 0.00 84 1005.5
20260505233553 26 150 17.7 32.2 0.00 0.00 0.00 84 1005.6
20260505233056 26 135 12.9 30.6 0.00 0.00 0.00 84 1005.5
20260505232556 26 118 11.3 32.2 0.00 0.00 0.00 84 1005.6
20260505232052 26 128 14.5 32.2 0.00 0.00 0.00 84 1005.7
20260505231557 26 151 17.7 29.0 0.00 0.00 0.00 84 1005.6
20260505231052 26 181 14.5 29.0 0.00 0.00 0.00 84 1005.7
20260505230552 26 143 14.5 32.2 0.00 0.00 0.00 84 1005.7
20260505230101 26 144 14.5 32.2 0.00 0.00 0.00 84 1005.7
20260505225552 26 132 17.7 37.0 0.00 0.00 0.00 84 1005.6
20260505225053 26 112 11.3 40.2 0.00 0.00 0.00 84 1005.7
20260505224554 26 115 17.7 40.2 0.00 0.00 0.00 83 1005.9
20260505224054 26 138 17.7 29.0 0.00 0.00 0.00 83 1005.9
20260505223551 26 153 11.3 25.7 0.00 0.00 0.00 84 1006.1
20260505223100 26 153 9.7 29.0 0.00 0.00 0.00 83 1006.0
20260505222551 26 134 11.3 29.0 0.00 0.00 0.00 83 1006.0
20260505222054 26 134 14.5 30.6 0.00 0.00 0.00 82 1006.1
20260505221603 27 138 14.5 30.6 0.00 0.00 0.00 82 1006.1
20260505221052 27 173 14.5 32.2 0.00 0.00 0.00 82 1006.1
20260505220552 27 169 19.3 32.2 0.00 0.00 0.00 82 1006.1
20260505220107 27 123 12.9 27.4 0.00 0.00 0.00 82 1006.1
20260505215552 27 140 12.9 27.4 0.00 0.00 0.00 82 1006.1
20260505215052 27 141 14.5 29.0 0.00 0.00 0.00 81 1006.1
20260505214600 27 150 12.9 30.6 0.00 0.00 0.00 81 1006.1
20260505214052 27 136 16.1 30.6 0.00 0.00 0.00 80 1006.2
20260505213551 27 129 11.3 29.0 0.00 0.00 0.00 81 1006.1
20260505213054 27 126 16.1 29.0 0.00 0.00 0.00 80 1006.2
20260505212554 27 148 16.1 29.0 0.00 0.00 0.00 79 1006.5
20260505212052 27 123 12.9 29.0 0.00 0.00 0.00 80 1006.6
20260505211554 27 134 14.5 29.0 0.00 0.00 0.00 80 1006.7
20260505211123 27 129 17.7 29.0 0.00 0.00 0.00 79 1006.6
20260505210551 27 157 16.1 27.4 0.00 0.00 0.00 80 1006.6
20260505210055 27 107 14.5 27.4 0.00 0.00 0.00 81 1006.7
20260505205555 27 120 12.9 38.6 0.00 0.00 0.00 80 1006.7
20260505205055 27 149 19.3 38.6 0.00 0.00 0.00 78 1006.7
20260505204600 28 138 12.9 32.2 0.00 0.00 0.00 79 1006.7
20260505204052 28 153 16.1 32.2 0.00 0.00 0.00 78 1006.8
20260505203556 28 175 12.9 27.4 0.00 0.00 0.00 79 1006.9
20260505203052 28 141 16.1 27.4 0.00 0.00 0.00 78 1007.1
20260505202552 28 144 14.5 25.7 0.00 0.00 0.00 78 1007.2
20260505202052 28 155 12.9 29.0 0.00 0.00 0.00 79 1007.1
20260505201553 28 148 11.3 30.6 0.00 0.00 0.00 79 1007.2
20260505201055 28 112 14.5 30.6 0.00 0.00 0.00 79 1007.4
20260505200558 28 140 16.1 29.0 0.00 0.00 0.00 78 1007.4
20260505200054 28 140 11.3 29.0 0.00 0.00 0.00 77 1007.3
20260505195551 28 152 17.7 29.0 0.00 0.00 0.00 75 1007.4
20260505195054 29 157 9.7 35.4 0.00 0.00 0.00 75 1007.4
20260505194602 29 178 16.1 35.4 0.00 0.00 0.00 73 1007.5
20260505194052 28 187 14.5 29.0 0.00 0.00 0.00 74 1007.5
20260505193556 28 161 14.5 29.0 0.00 0.00 0.00 76 1007.5
20260505193054 28 150 11.3 32.2 0.00 0.00 0.00 77 1007.7
20260505192551 28 132 14.5 32.2 0.00 0.00 0.00 75 1007.7
20260505192052 28 155 17.7 33.8 0.00 0.00 0.00 74 1007.7
20260505191554 29 148 20.9 35.4 0.00 0.00 0.00 74 1007.7
20260505191056 29 136 14.5 35.4 0.00 0.00 0.00 76 1007.7
20260505190551 28 150 12.9 25.7 0.00 0.00 0.00 78 1007.7
20260505190056 28 113 11.3 25.7 0.00 0.00 0.00 78 1007.8
20260505185555 27 149 11.3 27.4 0.00 0.00 0.00 78 1007.9
20260505185055 27 157 14.5 27.4 0.00 0.00 0.00 78 1008.0
20260505184555 27 130 14.5 30.6 0.00 0.00 0.00 78 1008.0
20260505184055 27 153 16.1 30.6 0.00 0.00 0.00 78 1008.1
20260505183557 27 146 14.5 29.0 0.00 0.00 0.00 76 1008.1
20260505183057 28 192 14.5 33.8 0.00 0.00 0.00 75 1008.2
20260505182551 28 217 16.1 37.0 0.00 0.00 0.00 76 1008.1
20260505182051 28 155 12.9 37.0 0.00 0.00 0.00 76 1008.0
20260505181555 28 160 16.1 33.8 0.00 0.00 0.00 77 1008.0
20260505181054 28 210 9.7 25.7 0.00 0.00 0.00 77 1008.1
20260505180551 28 192 12.9 25.7 0.00 0.00 0.00 77 1008.2
20260505180058 27 194 11.3 32.2 0.00 0.00 0.00 77 1008.2
20260505175556 27 217 11.3 32.2 0.00 0.00 0.00 80 1008.3
20260505175052 27 201 11.3 24.1 0.00 0.00 0.00 81 1008.3
20260505174553 27 166 9.7 22.5 0.00 0.00 0.00 81 1008.5
20260505174055 27 117 11.3 24.1 0.00 0.00 0.00 81 1008.4
20260505173554 27 209 12.9 24.1 0.00 0.00 0.00 82 1008.4
20260505173100 26 188 8.0 20.9 0.00 0.00 0.00 83 1008.5
20260505172558 26 180 11.3 20.9 0.00 0.00 0.00 85 1008.7
20260505172054 26 160 11.3 32.2 0.00 0.00 0.00 84 1008.7
20260505171557 26 192 12.9 32.2 0.00 0.00 0.00 84 1008.7
20260505171054 26 174 8.0 17.7 0.00 0.00 0.00 84 1008.8
20260505170552 26 134 4.8 17.7 0.00 0.00 0.00 85 1008.7
20260505170055 26 198 3.2 20.9 0.00 0.00 0.00 84 1008.8
20260505165551 26 176 11.3 24.1 0.00 0.00 0.00 84 1008.8
20260505165054 26 217 11.3 24.1 0.00 0.00 0.00 85 1008.9
20260505164600 26 184 4.8 25.7 0.00 0.00 0.00 85 1008.9
20260505164054 26 182 6.4 25.7 0.00 0.00 0.00 85 1008.9
20260505163554 26 164 9.7 19.3 0.00 0.00 0.00 85 1008.9
20260505163054 26 146 8.0 19.3 0.00 0.00 0.00 85 1008.9
20260505162555 26 165 11.3 19.3 0.00 0.00 0.00 87 1008.8
20260505162056 26 178 9.7 24.1 0.00 0.00 0.00 88 1008.9
20260505161601 25 200 11.3 24.1 0.00 0.00 0.00 88 1009.0
20260505161055 25 167 9.7 22.5 0.00 0.00 0.00 89 1008.9
20260505160554 25 202 9.7 22.5 0.00 0.00 0.00 89 1008.9
20260505153110 24 169 9.7 19.3 0.00 0.00 0.00 92 1008.7
20260505152558 24 148 6.4 16.1 0.00 0.00 0.00 92 1008.6
20260505152055 24 157 6.4 19.3 0.00 0.00 0.00 91 1008.6
20260505151556 24 150 8.0 19.3 0.00 0.00 0.00 92 1008.7
20260505151056 24 174 3.2 16.1 0.00 0.00 0.00 92 1008.7
20260505150551 24 163 4.8 16.1 0.00 0.00 0.00 92 1008.7
20260505140551 23 188 6.4 12.9 0.00 0.00 0.00 94 1008.6
20260505140104 23 190 6.4 14.5 0.00 0.00 0.00 94 1008.6
20260505124559 22 172 8.0 16.1 0.00 0.00 0.00 95 1008.2
20260505124056 22 175 4.8 16.1 0.00 0.00 0.00 95 1008.1
20260505123600 22 180 6.4 16.1 0.00 0.00 0.00 95 1008.1
20260505123059 22 147 6.4 14.5 0.00 0.00 0.00 95 1008.0
20260505122559 22 173 6.4 14.5 0.00 0.00 0.00 95 1008.0
20260505122051 22 144 4.8 17.7 0.00 0.00 0.00 96 1007.9
20260505121553 22 181 6.4 17.7 0.00 0.00 0.00 96 1007.8
20260505121055 21 169 6.4 17.7 0.00 0.00 0.00 96 1007.8
20260505120553 21 163 6.4 14.5 0.00 0.00 0.00 96 1007.8
20260505120106 21 162 3.2 16.1 0.00 0.00 0.00 96 1007.8
20260505115554 21 159 3.2 17.7 0.00 0.00 0.00 96 1007.9
20260505115055 21 158 4.8 17.7 0.00 0.00 0.00 96 1007.9